SL-16 R/B (20625 NORAD) Tracking and Keplerian Element Data

This shows tracking and keplerian element data for the satellite.

Feedback or suggestion? Click here.




ElementValue
Catalog20625
NameSL-16 R/B
Epoch Orbit47499
Epoch Day348.81475695
Epoch Year2018
RAAN83.9543
Inclination70.9995
Eccentricity0.0014405
Argument of Perigee349.941
Mean Anonmoly10.1422
Mean Motion14.14634596
Decay Rate2.27E-06
L11 20625U 90046B 18348.81475695 .00000227 00000-0 14284-3 0 9996
L22 20625 70.9995 83.9543 0014405 349.9410 10.1422 14.14634596474998

Live tracking and technical data element details for SL-16 R/B (NORAD 20625). SL-16 R/B can be tracked NOW for your location showing map with azimuth and elevation plus other details from your city location.

Track the satellite on the map from your city or location and see movement details for azimuth, elevation, latitude, longitude, range, height, and movement on the map or in text.







IsCatalogInMostPopularTable: catalog: 20625, numindb: 32
Update: records affected: 1



GetName: 20625 SL-16 R/B

Hit Count: updated at: Sat, 15 Dec 2018 14:23:37 GMT